EWG4TV EDDL-LOWW

Flight info

Callsign EWG4TV
Flight time N/A
Altitude 35000
Route DODEN1T DODEN Y853 BOMBI DCT ESATI DCT OSBIT DCT KOMIB L984 SULUS Z650 VEMUT DCT BUDEX BUDEX2W
Aircraft A320/M-SDE3FGHIRWY/LB1

Departure

Time N/A
Airport Düsseldorf Airport (EDDL)

Arrival

Time 2026-04-20 17:12
Airport Vienna International Airport (LOWW)
Time Latitude Longitude Altitude Speed Heading
2026-04-20 16:59 48.18048 16.54957 4961 ft 202 kts 343°
2026-04-20 16:59 48.19410 16.54453 5003 ft 201 kts 343°
2026-04-20 16:59 48.20768 16.53927 5010 ft 201 kts 342°
2026-04-20 16:59 48.22118 16.53387 5009 ft 201 kts 342°
2026-04-20 17:00 48.24792 16.54012 5011 ft 214 kts 41°
2026-04-20 17:00 48.25529 16.55975 5007 ft 224 kts 76°
2026-04-20 17:00 48.25407 16.58307 5000 ft 230 kts 112°
2026-04-20 17:01 48.24523 16.60274 5005 ft 235 kts 132°
2026-04-20 17:01 48.23405 16.62057 4752 ft 233 kts 135°
2026-04-20 17:01 48.22273 16.63776 4502 ft 231 kts 135°
2026-04-20 17:01 48.21150 16.65478 4250 ft 228 kts 135°
2026-04-20 17:02 48.19913 16.66915 3994 ft 223 kts 158°
2026-04-20 17:02 48.18474 16.67733 3753 ft 220 kts 165°
2026-04-20 17:02 48.17017 16.68432 3500 ft 219 kts 165°
2026-04-20 17:02 48.15572 16.69109 3248 ft 217 kts 165°
2026-04-20 17:03 48.14135 16.69781 3052 ft 213 kts 166°
2026-04-20 17:03 48.12753 16.70434 2991 ft 204 kts 166°
2026-04-20 17:03 48.11413 16.71075 2998 ft 202 kts 166°
2026-04-20 17:03 48.10077 16.71718 3007 ft 201 kts 166°
2026-04-20 17:04 48.08742 16.72363 3015 ft 201 kts 166°
2026-04-20 17:04 48.07415 16.73006 3014 ft 200 kts 166°
2026-04-20 17:04 48.06089 16.73649 3011 ft 200 kts 165°
2026-04-20 17:04 48.04760 16.74293 3002 ft 201 kts 165°
2026-04-20 17:05 48.03427 16.74932 3012 ft 201 kts 166°
2026-04-20 17:05 48.02112 16.75559 3018 ft 202 kts 166°
2026-04-20 17:05 48.00774 16.76195 3016 ft 202 kts 165°
2026-04-20 17:05 47.99436 16.76826 2999 ft 201 kts 168°
2026-04-20 17:06 47.98087 16.76823 3006 ft 192 kts 207°
2026-04-20 17:06 47.97105 16.75641 3014 ft 180 kts 244°
2026-04-20 17:06 47.96584 16.73954 3017 ft 178 kts 254°
2026-04-20 17:06 47.96167 16.72197 3014 ft 179 kts 255°
2026-04-20 17:07 47.95768 16.70445 2993 ft 177 kts 255°
2026-04-20 17:07 47.95382 16.68700 3012 ft 177 kts 260°
2026-04-20 17:07 47.95471 16.66949 2999 ft 170 kts 299°
2026-04-20 17:07 47.96200 16.65557 3014 ft 171 kts 313°
2026-04-20 17:08 47.97068 16.64331 2972 ft 174 kts 322°
2026-04-20 17:08 47.98155 16.63641 2821 ft 166 kts 340°
2026-04-20 17:08 47.99225 16.63197 2606 ft 150 kts 340°
2026-04-20 17:08 48.00175 16.62800 2399 ft 135 kts 340°
2026-04-20 17:09 48.01058 16.62428 2224 ft 129 kts 340°
2026-04-20 17:09 48.01919 16.62064 2053 ft 128 kts 340°
2026-04-20 17:09 48.02771 16.61703 1893 ft 127 kts 340°
2026-04-20 17:09 48.03627 16.61338 1712 ft 129 kts 340°
2026-04-20 17:10 48.04480 16.60981 1535 ft 128 kts 342°
2026-04-20 17:10 48.05357 16.60626 1370 ft 131 kts 342°
2026-04-20 17:10 48.06239 16.60251 1196 ft 132 kts 342°
2026-04-20 17:10 48.07123 16.59874 995 ft 131 kts 343°
2026-04-20 17:11 48.07984 16.59512 819 ft 128 kts 342°
2026-04-20 17:11 48.08828 16.59152 658 ft 124 kts 343°
2026-04-20 17:11 48.09604 16.58821 609 ft 99 kts 344°
2026-04-20 17:11 48.10105 16.58609 621 ft 54 kts 344°
2026-04-20 17:12 48.10432 16.58469 620 ft 45 kts 344°
2026-04-20 17:12 48.10719 16.58348 621 ft 41 kts 343°
2026-04-20 17:12 48.10950 16.58228 609 ft 27 kts 323°
2026-04-20 17:12 48.11057 16.58029 616 ft 15 kts 295°
2026-04-20 17:13 48.11078 16.57963 616 ft 2 kts 296°
2026-04-20 17:13 48.11082 16.57950 617 ft 1 kts 296°
2026-04-20 17:13 48.11084 16.57944 621 ft 0 kts 296°
2026-04-20 17:13 48.11085 16.57940 620 ft 2 kts 294°
2026-04-20 17:14 48.11120 16.57829 613 ft 19 kts 296°
2026-04-20 17:14 48.11181 16.57641 613 ft 21 kts 295°
2026-04-20 17:14 48.11250 16.57432 614 ft 23 kts 296°
2026-04-20 17:14 48.11326 16.57207 615 ft 25 kts 292°
2026-04-20 17:15 48.11402 16.56963 617 ft 27 kts 296°
2026-04-20 17:15 48.11485 16.56708 609 ft 28 kts 296°
2026-04-20 17:15 48.11573 16.56444 618 ft 28 kts 296°
2026-04-20 17:15 48.11646 16.56211 616 ft 24 kts 296°
2026-04-20 17:16 48.11724 16.55979 617 ft 26 kts 296°
2026-04-20 17:16 48.11804 16.55731 616 ft 27 kts 295°
2026-04-20 17:16 48.11878 16.55499 616 ft 15 kts 291°
2026-04-20 17:16 48.11956 16.55467 616 ft 15 kts 26°
2026-04-20 17:17 48.12041 16.55532 609 ft 5 kts 47°
2026-04-20 17:17 48.12032 16.55563 609 ft 3 kts 113°
2026-04-20 17:17 48.12024 16.55589 614 ft 2 kts 116°
2026-04-20 17:17 48.12018 16.55608 622 ft 1 kts 116°
2026-04-20 17:18 48.12018 16.55609 622 ft 0 kts 116°